TimeCDT,TemperatureF,Dew PointF,Humidity,Sea Level PressureIn,VisibilityMPH,Wind Direction,Wind SpeedMPH,Gust SpeedMPH,PrecipitationIn,Events,Conditions,WindDirDegrees,DateUTC
12:15 AM,77.5,77.0,98,29.92,10.0,Calm,Calm,-,N/A,,Mostly Cloudy,0,2013-09-30 05:15:00
12:35 AM,77.5,77.0,98,29.91,7.0,Calm,Calm,-,N/A,,Overcast,0,2013-09-30 05:35:00
12:55 AM,77.4,76.8,98,29.91,10.0,Calm,Calm,-,N/A,,Overcast,0,2013-09-30 05:55:00
1:15 AM,77.4,77.0,99,29.90,10.0,Calm,Calm,-,N/A,,Overcast,0,2013-09-30 06:15:00
1:35 AM,77.4,77.0,99,29.90,10.0,NNW,3.5,-,N/A,,Overcast,340,2013-09-30 06:35:00
1:55 AM,77.4,77.0,99,29.90,7.0,NW,3.5,-,N/A,,Mostly Cloudy,320,2013-09-30 06:55:00
2:15 AM,77.2,76.8,99,29.89,7.0,Calm,Calm,-,N/A,,Scattered Clouds,0,2013-09-30 07:15:00
2:35 AM,77.2,77.0,99,29.89,7.0,Calm,Calm,-,N/A,,Scattered Clouds,0,2013-09-30 07:35:00
2:55 AM,77.0,76.6,99,29.88,10.0,Calm,Calm,-,N/A,,Scattered Clouds,0,2013-09-30 07:55:00
3:15 AM,77.0,76.5,98,29.88,10.0,North,3.5,-,N/A,,Scattered Clouds,360,2013-09-30 08:15:00
3:35 AM,76.3,75.9,99,29.87,10.0,North,5.8,-,N/A,,Clear,350,2013-09-30 08:35:00
3:55 AM,75.7,75.2,98,29.87,10.0,Calm,Calm,-,N/A,,Scattered Clouds,0,2013-09-30 08:55:00
4:15 AM,75.4,75.0,99,29.87,10.0,North,3.5,-,N/A,,Scattered Clouds,350,2013-09-30 09:15:00
4:35 AM,75.2,74.7,98,29.87,10.0,NNW,3.5,-,N/A,,Clear,340,2013-09-30 09:35:00
4:55 AM,75.0,74.3,98,29.87,10.0,NNW,3.5,-,N/A,,Mostly Cloudy,340,2013-09-30 09:55:00
5:15 AM,75.0,74.5,98,29.87,10.0,Calm,Calm,-,N/A,,Overcast,0,2013-09-30 10:15:00
5:35 AM,74.8,74.3,98,29.87,10.0,North,5.8,-,N/A,,Scattered Clouds,350,2013-09-30 10:35:00
5:55 AM,74.5,73.9,98,29.87,10.0,North,5.8,-,N/A,,Clear,10,2013-09-30 10:55:00
6:15 AM,74.3,73.6,98,29.87,10.0,North,4.6,-,N/A,,Clear,360,2013-09-30 11:15:00
6:35 AM,74.1,73.6,98,29.87,10.0,North,4.6,-,N/A,,Clear,10,2013-09-30 11:35:00
6:55 AM,74.3,73.6,98,29.88,10.0,North,4.6,-,N/A,,Clear,350,2013-09-30 11:55:00
7:15 AM,73.9,73.4,98,29.88,7.0,North,5.8,-,N/A,,Mostly Cloudy,350,2013-09-30 12:15:00
7:35 AM,73.8,73.4,99,29.88,10.0,North,6.9,-,N/A,,Scattered Clouds,360,2013-09-30 12:35:00
7:55 AM,73.6,73.0,98,29.88,10.0,North,4.6,-,N/A,Thunderstorm,Clear,360,2013-09-30 12:55:00
8:15 AM,74.1,73.6,98,29.88,7.0,North,5.8,-,N/A,,Clear,360,2013-09-30 13:15:00
8:35 AM,75.2,74.7,98,29.88,7.0,North,4.6,-,N/A,,Scattered Clouds,10,2013-09-30 13:35:00
8:55 AM,76.6,75.7,97,29.89,10.0,North,8.1,-,N/A,,Scattered Clouds,10,2013-09-30 13:55:00
9:15 AM,77.7,75.9,94,29.89,10.0,NNE,6.9,-,N/A,,Scattered Clouds,20,2013-09-30 14:15:00
9:35 AM,78.8,75.9,91,29.90,10.0,NNE,9.2,-,N/A,,Scattered Clouds,20,2013-09-30 14:35:00
9:55 AM,79.2,75.7,89,29.90,10.0,NNE,9.2,-,N/A,,Scattered Clouds,20,2013-09-30 14:55:00
10:15 AM,80.4,75.0,84,29.89,10.0,NNE,8.1,-,N/A,,Scattered Clouds,30,2013-09-30 15:15:00
10:35 AM,80.8,73.8,79,29.89,10.0,NNE,6.9,-,N/A,,Mostly Cloudy,30,2013-09-30 15:35:00
10:55 AM,82.0,74.3,77,29.89,10.0,NE,5.8,-,N/A,,Mostly Cloudy,40,2013-09-30 15:55:00
11:15 AM,82.9,73.8,74,29.89,10.0,ENE,5.8,-,N/A,Thunderstorm,Mostly Cloudy,60,2013-09-30 16:15:00
11:35 AM,83.8,73.8,72,29.89,10.0,NE,4.6,-,N/A,,Scattered Clouds,50,2013-09-30 16:35:00
11:55 AM,84.9,73.8,69,29.89,10.0,NNE,3.5,-,N/A,,Scattered Clouds,30,2013-09-30 16:55:00
12:15 PM,85.8,74.7,69,29.89,10.0,East,9.2,-,N/A,,Mostly Cloudy,100,2013-09-30 17:15:00
12:35 PM,86.4,74.8,68,29.88,10.0,East,8.1,-,0.01,,Scattered Clouds,100,2013-09-30 17:35:00
12:55 PM,87.1,74.8,67,29.87,10.0,East,6.9,-,0.01,,Clear,100,2013-09-30 17:55:00
1:15 PM,87.1,74.5,66,29.86,10.0,ESE,9.2,-,N/A,,Mostly Cloudy,120,2013-09-30 18:15:00
1:35 PM,87.1,74.8,67,29.86,10.0,ESE,6.9,-,N/A,,Mostly Cloudy,110,2013-09-30 18:35:00
1:55 PM,86.5,75.4,69,29.84,10.0,SE,5.8,-,N/A,,Scattered Clouds,140,2013-09-30 18:55:00
2:15 PM,88.3,75.0,65,29.84,10.0,SE,8.1,-,N/A,,Clear,130,2013-09-30 19:15:00
2:35 PM,88.9,74.8,63,29.83,10.0,SSE,6.9,-,N/A,,Clear,150,2013-09-30 19:35:00
2:55 PM,89.2,75.0,63,29.82,10.0,SE,8.1,-,N/A,,Scattered Clouds,130,2013-09-30 19:55:00
3:15 PM,89.2,75.2,63,29.81,10.0,SE,9.2,-,N/A,,Scattered Clouds,140,2013-09-30 20:15:00
3:35 PM,89.6,75.6,63,29.81,10.0,SE,8.1,-,N/A,,Scattered Clouds,140,2013-09-30 20:35:00
3:55 PM,88.2,75.6,66,29.80,10.0,ESE,4.6,-,N/A,,Mostly Cloudy,120,2013-09-30 20:55:00
4:15 PM,88.2,75.6,66,29.80,10.0,SE,6.9,-,N/A,,Mostly Cloudy,130,2013-09-30 21:15:00
4:35 PM,88.7,75.7,65,29.81,10.0,ESE,9.2,-,N/A,,Mostly Cloudy,110,2013-09-30 21:35:00
4:55 PM,87.6,75.2,66,29.80,10.0,ESE,9.2,-,N/A,,Scattered Clouds,120,2013-09-30 21:55:00
5:15 PM,87.3,75.0,67,29.80,10.0,SE,10.4,-,N/A,,Clear,130,2013-09-30 22:15:00
5:35 PM,86.9,74.8,67,29.80,10.0,SE,10.4,-,N/A,,Clear,130,2013-09-30 22:35:00
5:55 PM,86.5,75.0,68,29.80,10.0,SE,10.4,-,N/A,,Clear,130,2013-09-30 22:55:00
6:15 PM,85.8,75.0,70,29.80,10.0,ESE,9.2,-,N/A,,Clear,120,2013-09-30 23:15:00
6:35 PM,85.1,75.2,72,29.80,10.0,SE,8.1,-,N/A,,Clear,130,2013-09-30 23:35:00
6:55 PM,84.2,75.6,75,29.80,10.0,ESE,5.8,-,N/A,,Clear,120,2013-09-30 23:55:00
7:15 PM,82.9,76.1,80,29.80,10.0,SE,5.8,-,N/A,,Clear,140,2013-10-01 00:15:00
7:35 PM,81.9,77.7,87,29.81,10.0,SE,4.6,-,N/A,,Clear,140,2013-10-01 00:35:00
7:55 PM,81.1,78.8,93,29.81,10.0,SE,5.8,-,N/A,,Clear,140,2013-10-01 00:55:00
8:15 PM,81.0,78.6,93,29.81,10.0,SE,4.6,-,N/A,,Clear,140,2013-10-01 01:15:00
8:35 PM,80.8,78.8,94,29.82,10.0,SSE,5.8,-,N/A,,Clear,150,2013-10-01 01:35:00
8:55 PM,80.8,79.0,94,29.83,10.0,SSE,4.6,-,N/A,,Clear,150,2013-10-01 01:55:00
9:15 PM,81.0,79.2,94,29.83,10.0,SSE,4.6,-,N/A,,Clear,160,2013-10-01 02:15:00
9:35 PM,80.8,79.3,95,29.84,10.0,SSE,3.5,-,N/A,,Clear,160,2013-10-01 02:35:00
9:55 PM,80.6,79.2,95,29.84,10.0,SSE,4.6,-,N/A,,Clear,160,2013-10-01 02:55:00
10:15 PM,80.1,78.6,95,29.85,10.0,SSE,4.6,-,N/A,,Clear,150,2013-10-01 03:15:00
10:35 PM,79.9,78.6,96,29.85,10.0,South,4.6,-,N/A,,Clear,180,2013-10-01 03:35:00
10:55 PM,79.9,78.4,95,29.85,10.0,South,4.6,-,N/A,,Clear,170,2013-10-01 03:55:00
11:15 PM,79.7,78.3,95,29.85,10.0,SSE,5.8,-,N/A,,Clear,160,2013-10-01 04:15:00
11:35 PM,79.3,78.3,96,29.84,10.0,SSE,4.6,-,N/A,,Clear,160,2013-10-01 04:35:00
11:55 PM,79.3,78.3,96,29.84,10.0,SSE,3.5,-,N/A,,Clear,150,2013-10-01 04:55:00